カタログに戻る

STARLINK-31344

運用中通信VLEO
NORAD 59171·PAYLOAD·🇺🇸 United States

打ち上げ Mar 4, 2024 から Cape Canaveral Space Force Station

Loading…

次のパス (今後24時間)

TLE

最新Source: CelesTrak SupGP

元期: Sep 15, 2026, 03:28 UTC

1 59171C 24044V   26258.14493056  .00036129  00000+0  13083-2 0  2587
2 59171  43.0010 117.3538 0001475 277.3778 208.4517 15.27568458    18

AllMySatでSTARLINK-31344をリアルタイム追跡

Download on the App Store